Location: Passau
(48.5721°N, 13.4363°E)
Time: 11:37:53
(UTC+02:00)

ISS - Pass Details

Date: 01 October 2020
Orbit: 418 x 420 km, 51.6° (Epoch: 21 October)

Event Time Altitude Azimuth Distance (km) Brightness Sun altitude
Rises 19:29:47 0° 288° (WNW) 2,369 1.9 -8.3°
Reaches altitude 10° 19:31:54 10° 292° (WNW) 1,504 0.5 -8.7°
Maximum altitude 19:35:15 61° 13° (NNE) 481 -3.5 -9.2°
Enters shadow 19:38:01 14° 94° (E) 1,267 -2.0 -9.7°
